Location: Izdebno
(52.6670°N, 16.2170°E)
Time: 11:01:04
(UTC+01:00)

Transit 2A - Pass Details

Date: 04 February 2023
Orbit: 591 x 964 km, 66.7° (Epoch: 21 March)

Event Time Altitude Azimuth Distance (km) Brightness Sun altitude
Rises 23:46:15 0° 319° (NW) 3,406 - -53.1°
Reaches altitude 10° 23:48:45 10° 325° (NW) 2,521 - -53.2°
Maximum altitude 23:54:27 48° 39° (NE) 1,193 - -53.3°
Drops below altitude 10° 00:00:31 10° 113° (ESE) 2,680 - -53.4°
Sets 00:03:14 0° 119° (ESE) 3,639 - -53.4°
